Location: Newark
(44.6028°N, 124.0883°W)
Time: 23:59:04
(UTC+00:00)

N. Korean satellite - Pass Details

Date: 25 October 2020
Orbit: 452 x 504 km, 97.2° (Epoch: 24 November)

Event Time Altitude Azimuth Distance (km) Brightness Sun altitude
Rises 14:07:22 0° 8° (N) 2,485 10.1 -7.4°
Reaches altitude 10° 14:09:27 10° 4° (N) 1,602 9.1 -7.1°
Maximum altitude 14:12:48 55° 286° (WNW) 551 6.5 -6.5°
Drops below altitude 10° 14:16:07 10° 207° (SSW) 1,583 9.0 -5.9°
Sets 14:18:10 0° 203° (SSW) 2,452 10.0 -5.6°
